When you browse on this site, cookies collect data to enhance your experience and personalize the content and advertising you see.
Visit our Privacy Policy to learn more. By continuing to use the site, you agree to this use of cookies and data.
  • In Portugal
  • List of Countries
  • For 7 days
  • Water Temperature
  • Satellite Maps
  • Weather Map
  • Weather Widgets
  • user-avatar
    Login

    Hourly Weather Lankaran

    Today, 24 January, Thursday

    Time Temperature Precipitation Wind Pressure Humidity
    00:00 -3°C° 0 mm 2 mps 634 mmHg 47%
    01:00 -3°C° 0 mm 2 mps 633 mmHg 46%
    02:00 -3°C° 0 mm 2 mps 633 mmHg 45%
    03:00 -5°C° 0 mm 3 mps 633 mmHg 48%
    04:00 -5°C° 0 mm 3 mps 633 mmHg 50%
    05:00 -5°C° 0 mm 3 mps 633 mmHg 51%
    06:00 -5°C° 0 mm 3 mps 633 mmHg 52%
    07:00 -4°C° 0 mm 3 mps 633 mmHg 51%
    08:00 -2°C° 0 mm 3 mps 634 mmHg 49%
    09:00 0°C° 0 mm 3 mps 634 mmHg 48%
    10:00 +1°C° 0 mm 3 mps 634 mmHg 48%
    11:00 +2°C° 0 mm 3 mps 635 mmHg 48%
    12:00 +3°C° 0 mm 3 mps 635 mmHg 48%
    13:00 +3°C° 0 mm 3 mps 634 mmHg 49%
    14:00 +3°C° 0 mm 3 mps 634 mmHg 50%
    15:00 +3°C° 0 mm 3 mps 634 mmHg 51%
    16:00 +2°C° 0 mm 3 mps 633 mmHg 54%
    17:00 +1°C° 0 mm 3 mps 633 mmHg 57%
    18:00 -1°C° 0 mm 3 mps 632 mmHg 60%
    19:00 -2°C° 0 mm 4 mps 632 mmHg 57%
    20:00 -2°C° 0 mm 4 mps 632 mmHg 54%
    21:00 -2°C° 0 mm 4 mps 631 mmHg 51%
    22:00 -2°C° 0 mm 4 mps 631 mmHg 51%
    23:00 -2°C° 0 mm 4 mps 631 mmHg 51%

    Tomorrow, 25 January, Friday

    Time Temperature Precipitation Wind Pressure Humidity
    00:00 -2°C° 0 mm 4 mps 631 mmHg 51%
    01:00 -2°C° 0 mm 4 mps 631 mmHg 51%
    02:00 -2°C° 0 mm 4 mps 631 mmHg 51%
    03:00 -2°C° 0 mm 4 mps 630 mmHg 52%
    04:00 -2°C° 0 mm 4 mps 630 mmHg 53%
    05:00 -2°C° 0 mm 4 mps 630 mmHg 53%
    06:00 -2°C° 0 mm 4 mps 630 mmHg 54%
    07:00 -1°C° 0 mm 4 mps 630 mmHg 53%
    08:00 0°C° 0 mm 4 mps 630 mmHg 52%
    09:00 +1°C° 0 mm 4 mps 631 mmHg 51%
    10:00 +3°C° 0 mm 4 mps 631 mmHg 51%
    11:00 +4°C° 0 mm 4 mps 631 mmHg 51%
    12:00 +5°C° 0 mm 4 mps 631 mmHg 51%
    13:00 +4°C° 0.1 mm 4 mps 631 mmHg 54%
    14:00 +4°C° 0.1 mm 4 mps 630 mmHg 56%
    15:00 +4°C° 0.1 mm 4 mps 630 mmHg 58%
    16:00 +3°C° 0 mm 4 mps 630 mmHg 60%
    17:00 +2°C° 0 mm 3 mps 630 mmHg 61%
    18:00 +1°C° 0 mm 3 mps 630 mmHg 63%
    19:00 +1°C° 0 mm 3 mps 630 mmHg 63%
    20:00 +1°C° 0 mm 3 mps 631 mmHg 63%
    21:00 0°C° 0 mm 3 mps 631 mmHg 63%
    22:00 0°C° 0 mm 3 mps 631 mmHg 62%
    23:00 0°C° 0 mm 3 mps 631 mmHg 62%

    Day after tomorrow, 26 January, Saturday

    Time Temperature Precipitation Wind Pressure Humidity
    00:00 -1°C° 0 mm 3 mps 631 mmHg 62%
    01:00 -1°C° 0 mm 3 mps 631 mmHg 61%
    02:00 -1°C° 0 mm 3 mps 632 mmHg 60%
    03:00 -1°C° 0 mm 3 mps 632 mmHg 59%
    04:00 -1°C° 0 mm 3 mps 632 mmHg 57%
    05:00 -1°C° 0 mm 3 mps 632 mmHg 56%
    06:00 -1°C° 0 mm 3 mps 632 mmHg 55%
    07:00 0°C° 0 mm 3 mps 632 mmHg 52%
    08:00 +1°C° 0 mm 3 mps 633 mmHg 50%
    09:00 +2°C° 0 mm 3 mps 634 mmHg 47%
    10:00 +3°C° 0 mm 3 mps 634 mmHg 48%
    11:00 +4°C° 0 mm 3 mps 634 mmHg 48%
    12:00 +5°C° 0 mm 4 mps 634 mmHg 49%
    13:00 +5°C° 0 mm 4 mps 633 mmHg 49%
    14:00 +5°C° 0 mm 4 mps 633 mmHg 50%
    15:00 +6°C° 0 mm 4 mps 632 mmHg 50%
    16:00 +4°C° 0 mm 4 mps 632 mmHg 53%
    17:00 +3°C° 0 mm 4 mps 632 mmHg 56%
    18:00 +1°C° 0 mm 4 mps 631 mmHg 59%
    19:00 +1°C° 0 mm 4 mps 631 mmHg 57%
    20:00 +1°C° 0 mm 4 mps 631 mmHg 56%
    21:00 +1°C° 0 mm 4 mps 631 mmHg 54%
    22:00 +1°C° 0 mm 4 mps 631 mmHg 54%
    23:00 0°C° 0 mm 4 mps 631 mmHg 54%

    27 January, Sunday

    Time Temperature Precipitation Wind Pressure Humidity
    00:00 0°C° 0 mm 4 mps 631 mmHg 54%
    01:00 0°C° 0 mm 4 mps 631 mmHg 54%
    02:00 0°C° 0 mm 4 mps 631 mmHg 53%
    03:00 +1°C° 0 mm 4 mps 631 mmHg 53%
    04:00 0°C° 0 mm 4 mps 630 mmHg 53%
    05:00 0°C° 0 mm 4 mps 630 mmHg 53%
    06:00 0°C° 0 mm 4 mps 630 mmHg 53%
    07:00 +3°C° 0 mm 4 mps 631 mmHg 51%
    08:00 +4°C° 0 mm 4 mps 631 mmHg 48%
    09:00 +5°C° 0 mm 4 mps 632 mmHg 46%
    10:00 +7°C° 0 mm 4 mps 632 mmHg 44%
    11:00 +8°C° 0 mm 5 mps 631 mmHg 43%
    12:00 +9°C° 0 mm 5 mps 631 mmHg 41%
    13:00 +9°C° 0 mm 5 mps 631 mmHg 42%
    14:00 +9°C° 0 mm 5 mps 630 mmHg 43%
    15:00 +9°C° 0 mm 5 mps 630 mmHg 44%
    16:00 +8°C° 0 mm 5 mps 629 mmHg 48%
    17:00 +7°C° 0 mm 5 mps 629 mmHg 52%
    18:00 +5°C° 0 mm 4 mps 628 mmHg 56%
    19:00 +5°C° 0 mm 4 mps 629 mmHg 57%
    20:00 +5°C° 0 mm 5 mps 629 mmHg 58%
    21:00 +5°C° 0 mm 5 mps 629 mmHg 58%
    22:00 +5°C° 0 mm 5 mps 629 mmHg 59%
    23:00 +5°C° 0 mm 5 mps 629 mmHg 60%

    28 January, Monday

    Time Temperature Precipitation Wind Pressure Humidity
    00:00 +5°C° 0 mm 5 mps 629 mmHg 61%
    01:00 +5°C° 0 mm 5 mps 629 mmHg 61%
    02:00 +5°C° 0 mm 5 mps 629 mmHg 62%
    03:00 +5°C° 0 mm 5 mps 629 mmHg 62%
    04:00 +5°C° 0 mm 5 mps 629 mmHg 63%
    05:00 +3°C° 0 mm 5 mps 629 mmHg 63%
    06:00 +3°C° 0 mm 5 mps 629 mmHg 64%
    07:00 +5°C° 0 mm 4 mps 629 mmHg 63%
    08:00 +5°C° 0 mm 3 mps 630 mmHg 63%
    09:00 +7°C° 0 mm 3 mps 630 mmHg 62%
    10:00 +7°C° 0.3 mm 2 mps 630 mmHg 65%
    11:00 +7°C° 0.3 mm 2 mps 630 mmHg 67%
    12:00 +6°C° 0.3 mm 2 mps 629 mmHg 70%
    13:00 +5°C° 1.3 mm 2 mps 629 mmHg 76%
    14:00 +4°C° 1.3 mm 2 mps 628 mmHg 82%
    15:00 +1°C° 1.3 mm 3 mps 628 mmHg 88%
    16:00 +1°C° 1.6 mm 3 mps 628 mmHg 89%
    17:00 +1°C° 1.6 mm 2 mps 627 mmHg 90%
    18:00 +1°C° 1.6 mm 2 mps 627 mmHg 91%
    19:00 -1°C° 1.7 mm 2 mps 627 mmHg 92%
    20:00 -1°C° 1.7 mm 2 mps 627 mmHg 92%
    21:00 -1°C° 1.7 mm 2 mps 627 mmHg 92%
    22:00 -2°C° 2.6 mm 3 mps 627 mmHg 92%
    23:00 -2°C° 2.6 mm 3 mps 627 mmHg 92%

    29 January, Tuesday

    Time Temperature Precipitation Wind Pressure Humidity
    00:00 -2°C° 2.6 mm 3 mps 626 mmHg 92%
    01:00 -3°C° 1.6 mm 4 mps 626 mmHg 93%
    02:00 -3°C° 1.6 mm 4 mps 626 mmHg 93%
    03:00 -3°C° 1.6 mm 4 mps 626 mmHg 94%
    04:00 -4°C° 2.8 mm 4 mps 626 mmHg 94%
    05:00 -4°C° 2.8 mm 4 mps 626 mmHg 95%
    06:00 -4°C° 2.8 mm 3 mps 626 mmHg 95%
    07:00 -4°C° 1.4 mm 3 mps 627 mmHg 94%
    08:00 -3°C° 1.4 mm 2 mps 628 mmHg 93%
    09:00 -3°C° 1.4 mm 2 mps 628 mmHg 92%
    10:00 -3°C° 1.2 mm 2 mps 628 mmHg 92%
    11:00 -3°C° 1.2 mm 2 mps 629 mmHg 92%
    12:00 -3°C° 1.2 mm 2 mps 629 mmHg 92%
    13:00 -3°C° 1 mm 2 mps 629 mmHg 92%
    14:00 -3°C° 1 mm 2 mps 630 mmHg 92%
    15:00 -3°C° 1 mm 2 mps 630 mmHg 92%
    16:00 -3°C° 0.6 mm 2 mps 630 mmHg 91%
    17:00 -4°C° 0.6 mm 2 mps 631 mmHg 91%
    18:00 -4°C° 0.6 mm 2 mps 632 mmHg 90%
    19:00 -2°C° 0.6 mm 1 mps 632 mmHg 89%
    20:00 -2°C° 0.6 mm 1 mps 633 mmHg 88%
    21:00 -2°C° 0.6 mm 1 mps 633 mmHg 87%
    22:00 -2°C° 0.3 mm 1 mps 633 mmHg 85%
    23:00 -2°C° 0.3 mm 1 mps 634 mmHg 84%
    Show more